Time,TemperatureF,DewpointF,PressureIn,WindDirection,WindDirectionDegrees,WindSpeedMPH,WindSpeedGustMPH,Humidity,HourlyPrecipIn,Conditions,Clouds,dailyrainin,SoftwareType,DateUTC
2013-02-24 00:00:00,32.0,27.7,29.89,North,0,0.0,0.0,84,0.00,,,0.00,pywws,2013-02-24 05:00:00,
2013-02-24 00:01:00,32.0,27.7,29.89,North,0,0.0,0.0,84,0.00,,,0.00,pywws,2013-02-24 05:01:00,
2013-02-24 00:06:00,32.0,27.7,29.89,East,90,0.0,0.0,84,0.00,,,0.00,pywws,2013-02-24 05:06:00,
2013-02-24 00:10:00,32.0,27.7,29.89,North,0,0.0,0.0,84,0.00,,,0.00,pywws,2013-02-24 05:10:00,
2013-02-24 00:14:00,32.0,27.7,29.89,NE,45,0.0,0.0,84,0.00,,,0.00,pywws,2013-02-24 05:14:00,
2013-02-24 00:19:00,32.0,27.7,29.88,NW,315,0.0,0.0,84,0.00,,,0.00,pywws,2013-02-24 05:19:00,
2013-02-24 00:25:00,32.0,28.0,29.88,East,90,0.0,0.7,85,0.00,,,0.00,pywws,2013-02-24 05:25:00,
2013-02-24 00:30:00,32.0,28.0,29.88,North,0,0.0,0.0,85,0.00,,,0.00,pywws,2013-02-24 05:30:00,
2013-02-24 00:36:00,32.0,28.0,29.87,NE,45,0.0,0.0,85,0.01,,,0.01,pywws,2013-02-24 05:36:00,
2013-02-24 00:42:00,32.2,28.2,29.87,NE,45,0.0,0.0,85,0.01,,,0.01,pywws,2013-02-24 05:42:00,
2013-02-24 00:47:00,32.0,28.0,29.87,East,90,0.0,0.0,85,0.01,,,0.01,pywws,2013-02-24 05:47:00,
2013-02-24 00:53:00,32.2,28.2,29.88,NW,315,0.0,0.0,85,0.01,,,0.01,pywws,2013-02-24 05:53:00,
2013-02-24 00:58:00,32.2,28.2,29.87,SE,135,0.0,0.0,85,0.01,,,0.01,pywws,2013-02-24 05:58:00,
2013-02-24 01:04:00,32.2,28.2,29.87,NE,45,0.0,0.0,85,0.01,,,0.01,pywws,2013-02-24 06:04:00,
2013-02-24 01:10:00,32.2,28.2,29.87,North,0,0.0,0.0,85,0.01,,,0.01,pywws,2013-02-24 06:10:00,
2013-02-24 01:15:00,32.2,28.2,29.87,NE,45,0.0,0.0,85,0.02,,,0.02,pywws,2013-02-24 06:15:00,
2013-02-24 01:21:00,32.2,28.2,29.87,North,0,0.0,0.0,85,0.02,,,0.02,pywws,2013-02-24 06:21:00,
2013-02-24 01:26:00,32.2,28.2,29.86,North,0,0.0,0.0,85,0.02,,,0.02,pywws,2013-02-24 06:26:00,
2013-02-24 01:32:00,32.2,28.2,29.87,North,0,0.0,0.0,85,0.01,,,0.02,pywws,2013-02-24 06:32:00,
2013-02-24 01:38:00,32.2,28.2,29.87,North,0,0.0,0.0,85,0.02,,,0.04,pywws,2013-02-24 06:38:00,
2013-02-24 01:43:00,32.2,28.2,29.86,North,0,0.0,0.0,85,0.02,,,0.04,pywws,2013-02-24 06:43:00,
2013-02-24 01:49:00,32.2,28.2,29.86,East,90,0.0,0.0,85,0.02,,,0.04,pywws,2013-02-24 06:49:00,
2013-02-24 01:54:00,32.2,28.2,29.86,North,0,0.0,0.0,85,0.02,,,0.04,pywws,2013-02-24 06:54:00,
2013-02-24 02:00:00,32.2,28.2,29.85,North,0,0.0,0.0,85,0.02,,,0.04,pywws,2013-02-24 07:00:00,
2013-02-24 02:06:00,32.2,28.2,29.85,North,0,0.0,0.0,85,0.04,,,0.05,pywws,2013-02-24 07:06:00,
2013-02-24 02:11:00,32.2,28.2,29.85,North,0,0.0,0.0,85,0.02,,,0.05,pywws,2013-02-24 07:11:00,
2013-02-24 02:17:00,32.2,28.2,29.85,North,0,0.0,0.0,85,0.02,,,0.05,pywws,2013-02-24 07:17:00,
2013-02-24 02:22:00,32.2,28.2,29.84,North,0,0.0,0.0,85,0.04,,,0.06,pywws,2013-02-24 07:22:00,
2013-02-24 02:28:00,32.2,28.2,29.83,North,0,0.0,0.0,85,0.04,,,0.06,pywws,2013-02-24 07:28:00,
2013-02-24 02:34:00,32.2,28.2,29.83,North,0,0.0,0.0,85,0.02,,,0.06,pywws,2013-02-24 07:34:00,
2013-02-24 02:39:00,32.2,28.2,29.83,SE,135,0.0,0.0,85,0.02,,,0.06,pywws,2013-02-24 07:39:00,
2013-02-24 02:45:00,32.2,28.2,29.82,North,0,0.0,0.0,85,0.02,,,0.06,pywws,2013-02-24 07:45:00,
2013-02-24 02:50:00,32.2,28.2,29.81,North,0,0.0,0.0,85,0.02,,,0.06,pywws,2013-02-24 07:50:00,
2013-02-24 02:56:00,32.2,28.2,29.81,North,0,0.0,0.0,85,0.02,,,0.06,pywws,2013-02-24 07:56:00,
2013-02-24 03:02:00,32.2,28.2,29.81,North,0,0.0,0.0,85,0.01,,,0.06,pywws,2013-02-24 08:02:00,
2013-02-24 03:07:00,32.4,28.4,29.80,North,0,0.0,0.0,85,0.01,,,0.06,pywws,2013-02-24 08:07:00,
2013-02-24 03:13:00,32.4,28.4,29.80,North,0,0.0,0.0,85,0.01,,,0.06,pywws,2013-02-24 08:13:00,
2013-02-24 03:18:00,32.4,28.4,29.80,North,0,0.0,0.0,85,0.02,,,0.07,pywws,2013-02-24 08:18:00,
2013-02-24 03:24:00,32.4,28.4,29.80,North,0,0.0,0.0,85,0.01,,,0.07,pywws,2013-02-24 08:24:00,
2013-02-24 03:30:00,32.4,28.4,29.80,North,0,0.0,0.0,85,0.01,,,0.07,pywws,2013-02-24 08:30:00,
2013-02-24 03:35:00,32.5,28.5,29.80,North,0,0.0,0.0,85,0.02,,,0.08,pywws,2013-02-24 08:35:00,
2013-02-24 03:41:00,32.4,28.4,29.80,NE,45,0.0,0.0,85,0.02,,,0.08,pywws,2013-02-24 08:41:00,
2013-02-24 03:46:00,32.5,28.5,29.79,North,0,0.0,0.0,85,0.02,,,0.08,pywws,2013-02-24 08:46:00,
2013-02-24 03:52:00,32.5,28.5,29.79,NE,45,0.0,0.0,85,0.02,,,0.08,pywws,2013-02-24 08:52:00,
2013-02-24 03:58:00,32.7,28.7,29.79,North,0,0.0,0.0,85,0.02,,,0.08,pywws,2013-02-24 08:58:00,
2013-02-24 04:03:00,32.7,28.7,29.79,North,0,0.0,0.0,85,0.04,,,0.09,pywws,2013-02-24 09:03:00,
2013-02-24 04:09:00,32.7,28.7,29.78,North,0,0.0,0.0,85,0.04,,,0.09,pywws,2013-02-24 09:09:00,
2013-02-24 04:14:00,32.7,28.7,29.78,NE,45,0.0,0.0,85,0.04,,,0.09,pywws,2013-02-24 09:14:00,
2013-02-24 04:20:00,32.9,28.9,29.79,North,0,0.0,0.0,85,0.04,,,0.11,pywws,2013-02-24 09:20:00,
2013-02-24 04:26:00,32.9,28.9,29.79,West,270,0.0,0.0,85,0.04,,,0.11,pywws,2013-02-24 09:26:00,
2013-02-24 04:31:00,32.9,28.9,29.78,North,0,0.0,0.0,85,0.04,,,0.11,pywws,2013-02-24 09:31:00,
2013-02-24 04:37:00,32.9,28.9,29.78,NW,315,0.0,0.0,85,0.02,,,0.11,pywws,2013-02-24 09:37:00,
2013-02-24 04:42:00,33.1,29.1,29.77,North,0,0.0,0.0,85,0.02,,,0.11,pywws,2013-02-24 09:42:00,
2013-02-24 04:48:00,33.1,29.1,29.77,North,0,0.0,0.0,85,0.02,,,0.11,pywws,2013-02-24 09:48:00,
2013-02-24 04:54:00,33.1,29.1,29.77,East,90,0.0,0.0,85,0.02,,,0.11,pywws,2013-02-24 09:54:00,
2013-02-24 04:59:00,33.1,29.1,29.77,East,90,0.0,0.7,85,0.04,,,0.12,pywws,2013-02-24 09:59:00,
2013-02-24 05:05:00,33.1,29.1,29.77,North,0,0.0,0.0,85,0.02,,,0.12,pywws,2013-02-24 10:05:00,
2013-02-24 05:10:00,33.3,29.2,29.77,North,0,0.0,0.7,85,0.02,,,0.12,pywws,2013-02-24 10:10:00,
2013-02-24 05:16:00,33.1,29.1,29.77,East,90,0.0,0.7,85,0.04,,,0.13,pywws,2013-02-24 10:16:00,
2013-02-24 05:22:00,33.3,29.2,29.78,North,0,0.0,0.0,85,0.02,,,0.13,pywws,2013-02-24 10:22:00,
2013-02-24 05:27:00,33.3,29.2,29.78,East,90,0.0,0.0,85,0.02,,,0.13,pywws,2013-02-24 10:27:00,
2013-02-24 05:33:00,33.1,29.1,29.78,NE,45,0.0,0.0,85,0.02,,,0.13,pywws,2013-02-24 10:33:00,
2013-02-24 05:38:00,33.1,29.1,29.78,NW,315,0.0,0.0,85,0.02,,,0.13,pywws,2013-02-24 10:38:00,
2013-02-24 05:44:00,33.1,29.1,29.78,East,90,0.0,0.0,85,0.02,,,0.13,pywws,2013-02-24 10:44:00,
2013-02-24 05:50:00,33.1,29.1,29.79,North,0,0.0,0.0,85,0.04,,,0.14,pywws,2013-02-24 10:50:00,
2013-02-24 05:55:00,32.9,28.6,29.79,North,0,0.0,0.0,84,0.04,,,0.14,pywws,2013-02-24 10:55:00,
2013-02-24 06:01:00,32.7,28.4,29.78,North,0,0.0,0.0,84,0.02,,,0.14,pywws,2013-02-24 11:01:00,
2013-02-24 06:06:00,32.7,28.4,29.78,NE,45,0.0,0.0,84,0.02,,,0.14,pywws,2013-02-24 11:06:00,
2013-02-24 06:12:00,32.5,28.3,29.78,North,0,0.0,0.0,84,0.02,,,0.14,pywws,2013-02-24 11:12:00,
2013-02-24 06:18:00,32.5,28.3,29.77,North,0,0.0,0.0,84,0.01,,,0.14,pywws,2013-02-24 11:18:00,
2013-02-24 06:23:00,32.5,28.3,29.77,NW,315,0.0,0.0,84,0.01,,,0.14,pywws,2013-02-24 11:23:00,
2013-02-24 06:29:00,32.7,28.4,29.78,North,0,0.0,0.0,84,0.01,,,0.14,pywws,2013-02-24 11:29:00,
2013-02-24 06:34:00,32.5,28.3,29.78,South,180,0.0,0.0,84,0.01,,,0.14,pywws,2013-02-24 11:34:00,
2013-02-24 06:40:00,32.7,28.4,29.79,West,270,0.0,0.0,84,0.01,,,0.14,pywws,2013-02-24 11:40:00,
2013-02-24 06:46:00,32.7,28.4,29.79,West,270,0.0,0.0,84,0.00,,,0.14,pywws,2013-02-24 11:46:00,
2013-02-24 06:52:00,32.9,28.6,29.79,West,270,0.0,0.7,84,0.00,,,0.14,pywws,2013-02-24 11:52:00,
2013-02-24 06:58:00,32.7,28.4,29.78,North,0,0.0,0.0,84,0.00,,,0.14,pywws,2013-02-24 11:58:00,
2013-02-24 07:03:00,32.7,28.4,29.78,North,0,0.0,0.0,84,0.00,,,0.14,pywws,2013-02-24 12:03:00,
2013-02-24 07:09:00,32.7,28.4,29.78,NE,45,0.0,0.0,84,0.00,,,0.14,pywws,2013-02-24 12:09:00,
2013-02-24 07:14:00,32.9,28.6,29.78,NE,45,0.0,0.0,84,0.00,,,0.14,pywws,2013-02-24 12:14:00,
2013-02-24 07:20:00,32.9,28.6,29.77,North,0,0.0,0.0,84,0.00,,,0.14,pywws,2013-02-24 12:20:00,
2013-02-24 07:26:00,33.1,28.8,29.77,NE,45,0.0,0.0,84,0.00,,,0.14,pywws,2013-02-24 12:26:00,
2013-02-24 07:31:00,33.1,28.8,29.77,South,180,0.0,0.7,84,0.00,,,0.14,pywws,2013-02-24 12:31:00,
2013-02-24 07:37:00,33.4,29.1,29.76,NE,45,0.7,5.4,84,0.00,,,0.14,pywws,2013-02-24 12:37:00,
2013-02-24 07:42:00,33.3,29.0,29.76,NE,45,0.0,0.0,84,0.01,,,0.15,pywws,2013-02-24 12:42:00,
2013-02-24 07:48:00,33.3,29.0,29.76,North,0,0.0,0.0,84,0.01,,,0.15,pywws,2013-02-24 12:48:00,
2013-02-24 07:54:00,33.4,29.1,29.76,North,0,0.0,0.0,84,0.01,,,0.15,pywws,2013-02-24 12:54:00,
2013-02-24 07:59:00,33.4,29.1,29.75,East,90,0.0,0.7,84,0.02,,,0.17,pywws,2013-02-24 12:59:00,
2013-02-24 08:05:00,33.4,29.1,29.75,North,0,0.0,0.7,84,0.02,,,0.17,pywws,2013-02-24 13:05:00,
2013-02-24 08:10:00,33.6,29.3,29.75,North,0,0.0,0.7,84,0.02,,,0.17,pywws,2013-02-24 13:10:00,
2013-02-24 08:16:00,33.8,29.2,29.75,West,270,0.0,2.2,83,0.04,,,0.18,pywws,2013-02-24 13:16:00,
2013-02-24 08:22:00,33.8,29.2,29.75,North,0,0.0,0.0,83,0.04,,,0.18,pywws,2013-02-24 13:22:00,
2013-02-24 08:27:00,33.6,29.3,29.75,North,0,0.0,0.0,84,0.04,,,0.18,pywws,2013-02-24 13:27:00,
2013-02-24 08:33:00,33.6,29.3,29.75,NE,45,0.0,0.0,84,0.05,,,0.19,pywws,2013-02-24 13:33:00,
2013-02-24 08:38:00,33.4,28.8,29.74,West,270,0.0,0.7,83,0.04,,,0.19,pywws,2013-02-24 13:38:00,
2013-02-24 08:44:00,33.4,28.8,29.74,North,0,0.0,0.7,83,0.04,,,0.19,pywws,2013-02-24 13:44:00,
2013-02-24 08:50:00,33.4,28.8,29.74,West,270,0.0,0.0,83,0.05,,,0.20,pywws,2013-02-24 13:50:00,
2013-02-24 08:55:00,33.4,28.8,29.75,North,0,0.0,0.0,83,0.05,,,0.20,pywws,2013-02-24 13:55:00,
2013-02-24 09:01:00,33.4,28.8,29.74,North,0,0.0,0.0,83,0.04,,,0.20,pywws,2013-02-24 14:01:00,
2013-02-24 09:06:00,33.4,28.8,29.74,North,0,0.0,0.0,83,0.04,,,0.20,pywws,2013-02-24 14:06:00,
2013-02-24 09:12:00,33.6,29.0,29.74,North,0,0.0,0.0,83,0.04,,,0.21,pywws,2013-02-24 14:12:00,
2013-02-24 09:18:00,33.4,28.8,29.74,East,90,0.0,0.0,83,0.04,,,0.21,pywws,2013-02-24 14:18:00,
2013-02-24 09:23:00,33.8,28.9,29.74,North,0,0.0,0.7,82,0.05,,,0.22,pywws,2013-02-24 14:23:00,
2013-02-24 09:29:00,34.0,29.1,29.74,NE,45,0.0,0.7,82,0.05,,,0.22,pywws,2013-02-24 14:29:00,
2013-02-24 09:34:00,34.0,29.1,29.74,North,0,0.0,0.7,82,0.04,,,0.22,pywws,2013-02-24 14:34:00,
2013-02-24 09:40:00,34.0,29.1,29.74,North,0,0.0,0.0,82,0.04,,,0.22,pywws,2013-02-24 14:40:00,
2013-02-24 09:46:00,34.3,29.4,29.73,North,0,0.0,1.6,82,0.05,,,0.24,pywws,2013-02-24 14:46:00,
2013-02-24 09:52:00,34.0,29.1,29.73,North,0,0.0,2.2,82,0.04,,,0.24,pywws,2013-02-24 14:52:00,
2013-02-24 09:58:00,34.2,29.3,29.73,North,0,0.0,0.0,82,0.05,,,0.25,pywws,2013-02-24 14:58:00,
2013-02-24 10:03:00,33.8,28.9,29.73,NE,45,0.7,3.1,82,0.05,,,0.25,pywws,2013-02-24 15:03:00,
2013-02-24 10:09:00,33.8,28.9,29.72,West,270,0.0,0.0,82,0.05,,,0.25,pywws,2013-02-24 15:09:00,
2013-02-24 10:14:00,33.8,28.9,29.73,NE,45,0.0,0.0,82,0.04,,,0.25,pywws,2013-02-24 15:14:00,
2013-02-24 10:20:00,33.6,29.0,29.72,North,0,0.0,1.6,83,0.05,,,0.26,pywws,2013-02-24 15:20:00,
2013-02-24 10:26:00,33.4,28.8,29.72,NW,315,0.0,1.6,83,0.04,,,0.26,pywws,2013-02-24 15:26:00,
2013-02-24 10:31:00,33.4,28.8,29.72,North,0,0.0,0.0,83,0.04,,,0.26,pywws,2013-02-24 15:31:00,
2013-02-24 10:37:00,33.3,28.7,29.73,West,270,0.0,0.0,83,0.04,,,0.26,pywws,2013-02-24 15:37:00,
2013-02-24 10:42:00,33.1,28.5,29.73,East,90,0.0,0.7,83,0.05,,,0.27,pywws,2013-02-24 15:42:00,
2013-02-24 10:48:00,33.1,28.5,29.73,North,0,0.0,0.0,83,0.04,,,0.27,pywws,2013-02-24 15:48:00,
2013-02-24 10:54:00,33.1,28.5,29.73,North,0,0.0,0.7,83,0.04,,,0.27,pywws,2013-02-24 15:54:00,
2013-02-24 10:59:00,33.1,28.5,29.73,NE,45,0.0,0.7,83,0.02,,,0.27,pywws,2013-02-24 15:59:00,
2013-02-24 11:05:00,33.1,28.5,29.73,NE,45,0.0,0.0,83,0.02,,,0.27,pywws,2013-02-24 16:05:00,
2013-02-24 11:10:00,32.9,28.3,29.73,North,0,0.0,0.0,83,0.02,,,0.27,pywws,2013-02-24 16:10:00,
2013-02-24 11:17:00,32.7,28.1,29.72,North,0,0.0,0.0,83,0.02,,,0.27,pywws,2013-02-24 16:17:00,
2013-02-24 11:22:00,32.5,28.0,29.72,East,90,0.0,0.7,83,0.01,,,0.27,pywws,2013-02-24 16:22:00,
2013-02-24 11:28:00,32.7,28.1,29.72,NE,45,0.0,0.0,83,0.01,,,0.27,pywws,2013-02-24 16:28:00,
2013-02-24 11:34:00,32.5,28.0,29.73,NW,315,0.0,0.0,83,0.01,,,0.27,pywws,2013-02-24 16:34:00,
2013-02-24 11:41:00,32.7,28.1,29.73,North,0,0.0,0.0,83,0.00,,,0.27,pywws,2013-02-24 16:41:00,
2013-02-24 11:46:00,32.9,28.3,29.72,North,0,0.0,0.0,83,0.00,,,0.27,pywws,2013-02-24 16:46:00,
2013-02-24 11:52:00,32.7,28.1,29.73,NW,315,0.0,0.0,83,0.00,,,0.27,pywws,2013-02-24 16:52:00,
2013-02-24 11:58:00,32.7,28.1,29.72,North,0,0.0,0.7,83,0.00,,,0.27,pywws,2013-02-24 16:58:00,
2013-02-24 12:04:00,32.5,28.0,29.72,East,90,0.0,0.0,83,0.00,,,0.27,pywws,2013-02-24 17:04:00,
2013-02-24 12:10:00,32.7,28.1,29.72,NE,45,0.0,0.0,83,0.00,,,0.27,pywws,2013-02-24 17:10:00,
2013-02-24 12:15:00,32.5,28.0,29.71,NE,45,0.0,0.0,83,0.00,,,0.27,pywws,2013-02-24 17:15:00,
2013-02-24 12:21:00,32.9,28.3,29.71,East,90,0.0,1.6,83,0.00,,,0.27,pywws,2013-02-24 17:21:00,
2013-02-24 12:26:00,32.9,28.3,29.72,East,90,0.0,0.0,83,0.01,,,0.28,pywws,2013-02-24 17:26:00,
2013-02-24 12:32:00,32.9,28.3,29.71,North,0,0.0,0.0,83,0.01,,,0.28,pywws,2013-02-24 17:32:00,
2013-02-24 12:38:00,33.3,28.7,29.71,East,90,0.0,0.0,83,0.01,,,0.28,pywws,2013-02-24 17:38:00,
2013-02-24 12:43:00,33.4,28.5,29.71,North,0,0.0,0.0,82,0.01,,,0.28,pywws,2013-02-24 17:43:00,
2013-02-24 12:49:00,34.5,29.3,29.71,NE,45,0.0,0.7,81,0.02,,,0.30,pywws,2013-02-24 17:49:00,
2013-02-24 12:54:00,34.5,29.0,29.71,North,0,0.0,0.7,80,0.02,,,0.30,pywws,2013-02-24 17:54:00,
2013-02-24 13:00:00,34.9,29.3,29.71,West,270,0.0,0.0,80,0.02,,,0.30,pywws,2013-02-24 18:00:00,
2013-02-24 13:06:00,34.3,28.5,29.71,East,90,0.7,3.8,79,0.04,,,0.31,pywws,2013-02-24 18:06:00,
2013-02-24 13:11:00,34.0,28.2,29.71,NE,45,0.0,0.0,79,0.05,,,0.32,pywws,2013-02-24 18:11:00,
2013-02-24 13:17:00,34.3,28.8,29.71,East,90,0.0,0.0,80,0.05,,,0.32,pywws,2013-02-24 18:17:00,
2013-02-24 13:22:00,34.3,28.8,29.71,NW,315,0.0,0.0,80,0.04,,,0.32,pywws,2013-02-24 18:22:00,
2013-02-24 13:28:00,34.2,28.3,29.71,NE,45,0.0,1.6,79,0.05,,,0.33,pywws,2013-02-24 18:28:00,
2013-02-24 13:34:00,34.3,28.5,29.71,East,90,0.0,0.0,79,0.05,,,0.33,pywws,2013-02-24 18:34:00,
2013-02-24 13:39:00,35.1,29.2,29.71,SE,135,0.0,0.7,79,0.06,,,0.34,pywws,2013-02-24 18:39:00,
2013-02-24 13:45:00,34.9,29.0,29.70,NE,45,0.0,0.0,79,0.06,,,0.34,pywws,2013-02-24 18:45:00,
2013-02-24 13:50:00,35.2,29.4,29.70,North,0,0.0,0.0,79,0.06,,,0.35,pywws,2013-02-24 18:50:00,
2013-02-24 13:56:00,35.2,29.1,29.70,North,0,0.0,0.0,78,0.07,,,0.37,pywws,2013-02-24 18:56:00,
2013-02-24 13:58:00,35.2,29.4,29.70,North,0,0.0,2.2,79,0.07,,,0.37,pywws,2013-02-24 18:58:00,
2013-02-24 13:59:00,35.2,29.4,29.70,North,0,0.0,0.0,79,0.07,,,0.37,pywws,2013-02-24 18:59:00,
2013-02-24 14:00:00,35.4,29.6,29.70,North,0,0.0,0.0,79,0.07,,,0.37,pywws,2013-02-24 19:00:00,
2013-02-24 14:01:00,35.4,29.6,29.70,North,0,0.7,3.1,79,0.07,,,0.37,pywws,2013-02-24 19:01:00,
2013-02-24 14:02:00,35.4,29.6,29.70,North,0,0.0,3.1,79,0.06,,,0.37,pywws,2013-02-24 19:02:00,
2013-02-24 14:03:00,34.9,29.0,29.70,North,0,0.0,0.0,79,0.06,,,0.37,pywws,2013-02-24 19:03:00,
2013-02-24 14:04:00,34.7,28.9,29.70,NW,315,0.0,3.1,79,0.06,,,0.37,pywws,2013-02-24 19:04:00,
2013-02-24 14:05:00,34.7,28.9,29.70,North,0,0.7,5.4,79,0.06,,,0.37,pywws,2013-02-24 19:05:00,
2013-02-24 14:06:00,34.9,29.0,29.70,NW,315,0.0,0.0,79,0.06,,,0.37,pywws,2013-02-24 19:06:00,
2013-02-24 14:07:00,35.1,29.2,29.70,NE,45,0.0,0.7,79,0.06,,,0.37,pywws,2013-02-24 19:07:00,
2013-02-24 14:08:00,34.9,29.0,29.70,SW,225,0.0,1.6,79,0.06,,,0.37,pywws,2013-02-24 19:08:00,
2013-02-24 14:09:00,35.1,29.2,29.70,East,90,0.0,0.0,79,0.07,,,0.38,pywws,2013-02-24 19:09:00,
2013-02-24 14:10:00,34.7,28.9,29.70,North,0,0.0,0.0,79,0.07,,,0.38,pywws,2013-02-24 19:10:00,
2013-02-24 14:11:00,34.9,29.0,29.70,West,270,0.0,3.8,79,0.06,,,0.38,pywws,2013-02-24 19:11:00,
2013-02-24 14:12:00,34.7,28.9,29.71,North,0,0.0,1.6,79,0.06,,,0.38,pywws,2013-02-24 19:12:00,
2013-02-24 14:13:00,34.5,28.7,29.70,NW,315,0.7,3.8,79,0.06,,,0.38,pywws,2013-02-24 19:13:00,
2013-02-24 14:14:00,34.7,28.9,29.70,North,0,0.0,0.7,79,0.06,,,0.38,pywws,2013-02-24 19:14:00,
2013-02-24 14:15:00,34.7,28.9,29.70,North,0,0.0,0.0,79,0.06,,,0.38,pywws,2013-02-24 19:15:00,
2013-02-24 14:16:00,34.7,28.9,29.70,NW,315,0.0,0.0,79,0.06,,,0.38,pywws,2013-02-24 19:16:00,
2013-02-24 14:17:00,34.9,29.0,29.70,NW,315,0.0,0.0,79,0.06,,,0.38,pywws,2013-02-24 19:17:00,
2013-02-24 14:18:00,34.5,28.7,29.70,North,0,0.0,0.7,79,0.07,,,0.39,pywws,2013-02-24 19:18:00,
2013-02-24 14:19:00,34.5,28.7,29.71,North,0,0.0,1.6,79,0.07,,,0.39,pywws,2013-02-24 19:19:00,
2013-02-24 14:20:00,34.3,28.5,29.70,East,90,3.1,8.3,79,0.07,,,0.39,pywws,2013-02-24 19:20:00,
2013-02-24 14:21:00,34.2,28.3,29.70,SE,135,0.0,3.1,79,0.07,,,0.39,pywws,2013-02-24 19:21:00,
2013-02-24 14:22:00,34.5,28.7,29.70,SE,135,0.0,0.0,79,0.07,,,0.39,pywws,2013-02-24 19:22:00,
2013-02-24 14:23:00,34.5,28.7,29.70,North,0,0.0,0.0,79,0.07,,,0.39,pywws,2013-02-24 19:23:00,
2013-02-24 14:24:00,34.5,28.7,29.70,West,270,0.0,0.0,79,0.07,,,0.39,pywws,2013-02-24 19:24:00,
2013-02-24 14:25:00,34.5,28.7,29.70,East,90,0.0,0.0,79,0.07,,,0.39,pywws,2013-02-24 19:25:00,
2013-02-24 14:27:00,34.2,28.3,29.70,NE,45,0.0,3.1,79,0.06,,,0.39,pywws,2013-02-24 19:27:00,
2013-02-24 14:28:00,34.0,28.2,29.71,North,0,0.0,2.2,79,0.06,,,0.39,pywws,2013-02-24 19:28:00,
2013-02-24 14:29:00,34.0,28.2,29.71,NE,45,0.0,0.0,79,0.06,,,0.39,pywws,2013-02-24 19:29:00,
2013-02-24 14:30:00,34.0,28.2,29.71,NE,45,0.0,0.0,79,0.06,,,0.39,pywws,2013-02-24 19:30:00,
2013-02-24 14:31:00,34.0,28.2,29.71,NE,45,0.0,0.0,79,0.06,,,0.39,pywws,2013-02-24 19:31:00,
2013-02-24 14:32:00,34.0,28.2,29.71,NE,45,0.0,0.0,79,0.06,,,0.39,pywws,2013-02-24 19:32:00,
2013-02-24 14:33:00,34.2,28.3,29.71,NW,315,0.0,2.2,79,0.06,,,0.39,pywws,2013-02-24 19:33:00,
2013-02-24 14:34:00,33.6,28.1,29.71,NW,315,0.0,0.0,80,0.06,,,0.39,pywws,2013-02-24 19:34:00,
2013-02-24 14:35:00,33.8,28.0,29.71,North,0,0.0,0.0,79,0.05,,,0.39,pywws,2013-02-24 19:35:00,
2013-02-24 14:36:00,33.8,28.0,29.71,North,0,0.0,0.7,79,0.05,,,0.39,pywws,2013-02-24 19:36:00,
2013-02-24 14:37:00,33.6,28.1,29.71,North,0,0.0,0.7,80,0.05,,,0.39,pywws,2013-02-24 19:37:00,
2013-02-24 14:38:00,33.4,27.9,29.72,North,0,0.0,0.0,80,0.05,,,0.39,pywws,2013-02-24 19:38:00,
2013-02-24 14:39:00,33.6,28.4,29.71,West,270,0.0,0.0,81,0.05,,,0.39,pywws,2013-02-24 19:39:00,
2013-02-24 14:40:00,33.6,28.4,29.72,North,0,0.0,0.0,81,0.05,,,0.39,pywws,2013-02-24 19:40:00,
2013-02-24 14:41:00,33.4,28.2,29.71,West,270,0.0,0.0,81,0.06,,,0.40,pywws,2013-02-24 19:41:00,
2013-02-24 14:42:00,33.4,28.2,29.71,North,0,0.0,0.0,81,0.06,,,0.40,pywws,2013-02-24 19:42:00,
2013-02-24 14:43:00,33.3,28.1,29.71,North,0,0.0,0.7,81,0.06,,,0.40,pywws,2013-02-24 19:43:00,
2013-02-24 14:44:00,33.3,28.1,29.71,NE,45,0.0,1.6,81,0.06,,,0.40,pywws,2013-02-24 19:44:00,
2013-02-24 14:45:00,33.3,28.1,29.71,North,0,0.0,0.7,81,0.06,,,0.40,pywws,2013-02-24 19:45:00,
2013-02-24 14:46:00,33.4,28.2,29.71,NE,45,0.0,0.0,81,0.06,,,0.40,pywws,2013-02-24 19:46:00,
2013-02-24 14:47:00,33.4,28.2,29.71,North,0,0.0,0.0,81,0.06,,,0.40,pywws,2013-02-24 19:47:00,
2013-02-24 14:48:00,33.4,28.2,29.72,West,270,0.0,0.0,81,0.06,,,0.40,pywws,2013-02-24 19:48:00,
2013-02-24 14:49:00,33.3,28.1,29.71,North,0,0.0,0.0,81,0.05,,,0.40,pywws,2013-02-24 19:49:00,
2013-02-24 14:50:00,33.3,28.1,29.71,North,0,0.0,0.7,81,0.05,,,0.40,pywws,2013-02-24 19:50:00,
2013-02-24 14:51:00,33.3,28.1,29.72,North,0,0.0,2.2,81,0.05,,,0.40,pywws,2013-02-24 19:51:00,
2013-02-24 14:52:00,33.1,27.9,29.71,North,0,0.0,0.7,81,0.05,,,0.40,pywws,2013-02-24 19:52:00,
2013-02-24 14:53:00,33.3,28.1,29.72,NE,45,0.0,0.0,81,0.05,,,0.40,pywws,2013-02-24 19:53:00,
2013-02-24 14:54:00,33.1,27.9,29.72,North,0,0.0,0.0,81,0.05,,,0.40,pywws,2013-02-24 19:54:00,
2013-02-24 14:55:00,33.1,27.9,29.72,East,90,0.0,1.6,81,0.05,,,0.40,pywws,2013-02-24 19:55:00,
2013-02-24 14:56:00,33.1,27.9,29.72,North,0,0.0,0.0,81,0.04,,,0.40,pywws,2013-02-24 19:56:00,
2013-02-24 14:57:00,33.1,27.9,29.72,NW,315,0.0,0.0,81,0.04,,,0.40,pywws,2013-02-24 19:57:00,
2013-02-24 14:58:00,33.1,27.9,29.72,North,0,0.0,0.0,81,0.04,,,0.40,pywws,2013-02-24 19:58:00,
2013-02-24 14:59:00,33.1,27.9,29.72,North,0,0.0,0.0,81,0.04,,,0.40,pywws,2013-02-24 19:59:00,
2013-02-24 15:00:00,33.1,27.9,29.72,NW,315,0.0,0.0,81,0.04,,,0.40,pywws,2013-02-24 20:00:00,
2013-02-24 15:01:00,32.9,27.7,29.72,West,270,0.0,2.2,81,0.04,,,0.40,pywws,2013-02-24 20:01:00,
2013-02-24 15:02:00,32.9,27.7,29.72,West,270,0.0,0.0,81,0.04,,,0.40,pywws,2013-02-24 20:02:00,
2013-02-24 15:03:00,32.9,27.7,29.72,North,0,0.0,0.0,81,0.04,,,0.40,pywws,2013-02-24 20:03:00,
2013-02-24 15:04:00,32.9,27.7,29.72,North,0,0.0,0.0,81,0.04,,,0.40,pywws,2013-02-24 20:04:00,
2013-02-24 15:05:00,33.1,28.2,29.72,NW,315,0.0,0.0,82,0.05,,,0.41,pywws,2013-02-24 20:05:00,
2013-02-24 15:06:00,33.1,28.2,29.72,NE,45,0.0,0.0,82,0.05,,,0.41,pywws,2013-02-24 20:06:00,
2013-02-24 15:07:00,33.1,28.2,29.72,NE,45,0.0,0.0,82,0.05,,,0.41,pywws,2013-02-24 20:07:00,
2013-02-24 15:08:00,32.9,28.0,29.72,NE,45,0.0,0.0,82,0.05,,,0.41,pywws,2013-02-24 20:08:00,
2013-02-24 15:09:00,32.9,28.0,29.72,NE,45,0.0,0.0,82,0.04,,,0.41,pywws,2013-02-24 20:09:00,
2013-02-24 15:10:00,32.9,28.0,29.73,North,0,0.0,0.0,82,0.04,,,0.41,pywws,2013-02-24 20:10:00,
2013-02-24 15:11:00,33.1,28.2,29.72,North,0,0.0,0.0,82,0.04,,,0.41,pywws,2013-02-24 20:11:00,
2013-02-24 15:12:00,33.1,28.2,29.72,North,0,0.0,0.0,82,0.04,,,0.41,pywws,2013-02-24 20:12:00,
2013-02-24 15:13:00,32.9,28.0,29.73,North,0,0.0,0.0,82,0.04,,,0.41,pywws,2013-02-24 20:13:00,
2013-02-24 15:14:00,32.9,28.0,29.72,North,0,0.0,0.0,82,0.04,,,0.41,pywws,2013-02-24 20:14:00,
2013-02-24 15:15:00,32.9,28.0,29.72,North,0,0.0,0.0,82,0.04,,,0.41,pywws,2013-02-24 20:15:00,
2013-02-24 15:16:00,32.9,28.0,29.73,North,0,0.0,0.0,82,0.04,,,0.41,pywws,2013-02-24 20:16:00,
2013-02-24 15:17:00,32.9,28.0,29.73,West,270,0.0,0.0,82,0.04,,,0.41,pywws,2013-02-24 20:17:00,
2013-02-24 15:18:00,32.9,28.0,29.72,East,90,0.0,0.0,82,0.02,,,0.41,pywws,2013-02-24 20:18:00,
2013-02-24 15:19:00,32.9,28.0,29.73,North,0,0.0,0.0,82,0.02,,,0.41,pywws,2013-02-24 20:19:00,
2013-02-24 15:20:00,32.7,27.8,29.73,NE,45,0.0,0.0,82,0.02,,,0.41,pywws,2013-02-24 20:20:00,
2013-02-24 15:21:00,32.7,27.8,29.73,North,0,0.0,0.0,82,0.02,,,0.41,pywws,2013-02-24 20:21:00,
2013-02-24 15:22:00,32.7,27.8,29.73,SE,135,0.0,0.0,82,0.02,,,0.41,pywws,2013-02-24 20:22:00,
2013-02-24 15:23:00,32.7,27.8,29.73,North,0,0.0,0.0,82,0.02,,,0.41,pywws,2013-02-24 20:23:00,
2013-02-24 15:24:00,32.7,27.8,29.73,NW,315,0.0,0.0,82,0.02,,,0.41,pywws,2013-02-24 20:24:00,
2013-02-24 15:25:00,32.7,27.8,29.73,East,90,0.0,0.0,82,0.02,,,0.41,pywws,2013-02-24 20:25:00,
2013-02-24 15:26:00,32.7,27.8,29.73,North,0,0.0,0.0,82,0.02,,,0.41,pywws,2013-02-24 20:26:00,
2013-02-24 15:27:00,32.9,28.0,29.73,North,0,0.0,0.0,82,0.02,,,0.41,pywws,2013-02-24 20:27:00,
2013-02-24 15:28:00,32.9,28.0,29.73,NW,315,0.0,0.0,82,0.02,,,0.41,pywws,2013-02-24 20:28:00,
2013-02-24 15:29:00,32.9,28.0,29.73,North,0,0.0,0.0,82,0.02,,,0.41,pywws,2013-02-24 20:29:00,
2013-02-24 15:30:00,32.9,28.0,29.73,West,270,0.0,0.0,82,0.02,,,0.41,pywws,2013-02-24 20:30:00,
2013-02-24 15:31:00,32.9,28.0,29.73,North,0,0.0,0.0,82,0.02,,,0.41,pywws,2013-02-24 20:31:00,
2013-02-24 15:32:00,33.1,28.2,29.73,North,0,0.0,0.0,82,0.02,,,0.41,pywws,2013-02-24 20:32:00,
2013-02-24 15:33:00,33.4,28.5,29.73,North,0,0.0,0.0,82,0.02,,,0.41,pywws,2013-02-24 20:33:00,
2013-02-24 15:34:00,33.1,28.2,29.73,North,0,0.0,0.0,82,0.02,,,0.41,pywws,2013-02-24 20:34:00,
2013-02-24 15:35:00,32.9,28.0,29.73,SE,135,0.0,0.0,82,0.02,,,0.41,pywws,2013-02-24 20:35:00,
2013-02-24 15:36:00,32.9,28.0,29.73,East,90,0.0,0.0,82,0.02,,,0.41,pywws,2013-02-24 20:36:00,
2013-02-24 15:37:00,32.7,27.8,29.73,NW,315,0.0,0.7,82,0.02,,,0.41,pywws,2013-02-24 20:37:00,
2013-02-24 15:38:00,32.9,28.0,29.73,North,0,0.0,0.0,82,0.02,,,0.41,pywws,2013-02-24 20:38:00,
2013-02-24 15:39:00,32.9,28.0,29.73,North,0,0.0,0.0,82,0.02,,,0.41,pywws,2013-02-24 20:39:00,
2013-02-24 15:40:00,33.1,28.2,29.73,North,0,0.0,0.0,82,0.02,,,0.41,pywws,2013-02-24 20:40:00,
2013-02-24 15:41:00,32.9,28.0,29.73,North,0,0.0,0.0,82,0.01,,,0.41,pywws,2013-02-24 20:41:00,
2013-02-24 15:42:00,32.9,28.0,29.73,NE,45,0.0,0.0,82,0.01,,,0.41,pywws,2013-02-24 20:42:00,
2013-02-24 15:43:00,32.9,28.0,29.73,North,0,0.0,0.7,82,0.01,,,0.41,pywws,2013-02-24 20:43:00,
2013-02-24 15:44:00,32.9,28.0,29.73,East,90,0.0,0.0,82,0.01,,,0.41,pywws,2013-02-24 20:44:00,
2013-02-24 15:45:00,32.9,28.0,29.73,North,0,0.0,0.0,82,0.01,,,0.41,pywws,2013-02-24 20:45:00,
2013-02-24 15:46:00,32.9,28.0,29.73,North,0,0.0,0.0,82,0.01,,,0.41,pywws,2013-02-24 20:46:00,
2013-02-24 15:47:00,32.9,28.0,29.73,North,0,0.0,0.0,82,0.01,,,0.41,pywws,2013-02-24 20:47:00,
2013-02-24 15:48:00,32.9,28.0,29.73,North,0,0.0,0.0,82,0.01,,,0.41,pywws,2013-02-24 20:48:00,
2013-02-24 15:49:00,32.9,28.0,29.73,SE,135,0.0,0.0,82,0.01,,,0.41,pywws,2013-02-24 20:49:00,
2013-02-24 15:50:00,32.9,28.0,29.73,NE,45,0.0,0.0,82,0.02,,,0.43,pywws,2013-02-24 20:50:00,
2013-02-24 15:51:00,32.7,27.8,29.73,North,0,0.0,0.0,82,0.02,,,0.43,pywws,2013-02-24 20:51:00,
2013-02-24 15:52:00,32.9,28.0,29.73,East,90,0.0,0.0,82,0.02,,,0.43,pywws,2013-02-24 20:52:00,
2013-02-24 15:53:00,32.9,28.0,29.73,East,90,0.0,0.0,82,0.02,,,0.43,pywws,2013-02-24 20:53:00,
2013-02-24 15:54:00,32.9,28.0,29.73,NW,315,0.0,0.0,82,0.02,,,0.43,pywws,2013-02-24 20:54:00,
2013-02-24 15:55:00,32.9,28.0,29.73,NW,315,0.0,0.0,82,0.02,,,0.43,pywws,2013-02-24 20:55:00,
2013-02-24 15:56:00,32.9,28.0,29.73,NW,315,0.0,0.0,82,0.02,,,0.43,pywws,2013-02-24 20:56:00,
2013-02-24 15:57:00,32.9,28.0,29.73,North,0,0.0,0.0,82,0.02,,,0.43,pywws,2013-02-24 20:57:00,
2013-02-24 15:58:00,32.9,28.0,29.73,North,0,0.0,0.0,82,0.02,,,0.43,pywws,2013-02-24 20:58:00,
2013-02-24 15:59:00,32.9,28.0,29.73,North,0,0.0,0.0,82,0.02,,,0.43,pywws,2013-02-24 20:59:00,
2013-02-24 16:00:00,32.9,28.0,29.73,South,180,0.0,0.0,82,0.02,,,0.43,pywws,2013-02-24 21:00:00,
2013-02-24 16:01:00,32.9,28.0,29.74,SE,135,1.6,5.4,82,0.02,,,0.43,pywws,2013-02-24 21:01:00,
2013-02-24 16:02:00,32.9,28.0,29.73,NW,315,0.0,0.0,82,0.02,,,0.43,pywws,2013-02-24 21:02:00,
2013-02-24 16:03:00,32.9,28.0,29.74,North,0,0.0,0.0,82,0.02,,,0.43,pywws,2013-02-24 21:03:00,
2013-02-24 16:04:00,32.9,28.0,29.73,North,0,0.0,0.0,82,0.02,,,0.43,pywws,2013-02-24 21:04:00,
2013-02-24 16:05:00,32.9,28.0,29.73,North,0,0.0,0.0,82,0.01,,,0.43,pywws,2013-02-24 21:05:00,
2013-02-24 16:06:00,33.1,28.2,29.73,North,0,0.0,0.7,82,0.01,,,0.43,pywws,2013-02-24 21:06:00,
2013-02-24 16:07:00,32.9,28.0,29.73,North,0,0.0,0.0,82,0.01,,,0.43,pywws,2013-02-24 21:07:00,
2013-02-24 16:08:00,33.1,28.2,29.73,North,0,0.0,0.0,82,0.01,,,0.43,pywws,2013-02-24 21:08:00,
2013-02-24 16:09:00,33.1,28.2,29.73,North,0,0.0,0.0,82,0.01,,,0.43,pywws,2013-02-24 21:09:00,
2013-02-24 16:10:00,32.9,28.0,29.73,North,0,0.0,0.0,82,0.02,,,0.44,pywws,2013-02-24 21:10:00,
2013-02-24 16:11:00,33.1,28.2,29.74,East,90,0.0,0.0,82,0.02,,,0.44,pywws,2013-02-24 21:11:00,
2013-02-24 16:12:00,32.9,28.0,29.73,North,0,0.0,0.0,82,0.02,,,0.44,pywws,2013-02-24 21:12:00,
2013-02-24 16:13:00,33.1,28.2,29.73,NW,315,0.0,0.0,82,0.02,,,0.44,pywws,2013-02-24 21:13:00,
2013-02-24 16:14:00,32.9,28.0,29.73,North,0,0.0,0.0,82,0.02,,,0.44,pywws,2013-02-24 21:14:00,
2013-02-24 16:15:00,32.9,28.0,29.73,North,0,0.0,0.0,82,0.02,,,0.44,pywws,2013-02-24 21:15:00,
2013-02-24 16:16:00,32.9,28.0,29.74,West,270,0.0,0.0,82,0.02,,,0.44,pywws,2013-02-24 21:16:00,
2013-02-24 16:17:00,32.9,28.0,29.74,West,270,0.0,0.0,82,0.02,,,0.44,pywws,2013-02-24 21:17:00,
2013-02-24 16:18:00,32.9,28.0,29.74,NW,315,0.0,0.0,82,0.02,,,0.44,pywws,2013-02-24 21:18:00,
2013-02-24 16:19:00,32.9,28.0,29.74,NE,45,0.0,0.0,82,0.02,,,0.44,pywws,2013-02-24 21:19:00,
2013-02-24 16:20:00,32.9,28.0,29.74,NW,315,0.0,0.0,82,0.02,,,0.44,pywws,2013-02-24 21:20:00,
2013-02-24 16:21:00,32.9,28.0,29.73,North,0,0.0,0.0,82,0.02,,,0.44,pywws,2013-02-24 21:21:00,
2013-02-24 16:22:00,32.7,27.8,29.74,NW,315,0.0,0.0,82,0.02,,,0.44,pywws,2013-02-24 21:22:00,
2013-02-24 16:23:00,32.7,27.8,29.73,West,270,0.0,0.0,82,0.02,,,0.44,pywws,2013-02-24 21:23:00,
2013-02-24 16:24:00,32.9,28.0,29.73,NW,315,0.0,0.0,82,0.02,,,0.44,pywws,2013-02-24 21:24:00,
2013-02-24 16:25:00,32.9,28.0,29.74,NW,315,0.0,0.0,82,0.02,,,0.44,pywws,2013-02-24 21:25:00,
2013-02-24 16:26:00,32.9,28.3,29.74,North,0,0.0,0.7,83,0.02,,,0.44,pywws,2013-02-24 21:26:00,
2013-02-24 16:27:00,32.7,28.1,29.73,North,0,0.0,0.0,83,0.02,,,0.44,pywws,2013-02-24 21:27:00,
2013-02-24 16:28:00,32.7,28.1,29.74,North,0,0.0,0.0,83,0.02,,,0.44,pywws,2013-02-24 21:28:00,
2013-02-24 16:29:00,32.9,28.3,29.74,North,0,0.0,0.0,83,0.02,,,0.44,pywws,2013-02-24 21:29:00,
2013-02-24 16:30:00,32.7,28.1,29.75,North,0,0.0,0.0,83,0.02,,,0.44,pywws,2013-02-24 21:30:00,
2013-02-24 16:31:00,32.7,28.1,29.74,SE,135,0.0,0.0,83,0.02,,,0.44,pywws,2013-02-24 21:31:00,
2013-02-24 16:32:00,32.5,28.0,29.74,NE,45,0.0,0.0,83,0.02,,,0.44,pywws,2013-02-24 21:32:00,
2013-02-24 16:33:00,32.7,28.1,29.74,North,0,0.0,0.7,83,0.02,,,0.44,pywws,2013-02-24 21:33:00,
2013-02-24 16:34:00,32.5,28.0,29.74,NE,45,0.0,0.0,83,0.02,,,0.44,pywws,2013-02-24 21:34:00,
2013-02-24 16:35:00,32.5,28.0,29.74,NW,315,0.0,0.0,83,0.02,,,0.44,pywws,2013-02-24 21:35:00,
2013-02-24 16:36:00,32.7,28.1,29.74,West,270,0.0,1.6,83,0.02,,,0.44,pywws,2013-02-24 21:36:00,
2013-02-24 16:37:00,32.5,28.0,29.74,NW,315,0.0,0.0,83,0.02,,,0.44,pywws,2013-02-24 21:37:00,
2013-02-24 16:38:00,32.7,28.1,29.74,NW,315,0.0,0.0,83,0.02,,,0.44,pywws,2013-02-24 21:38:00,
2013-02-24 16:39:00,32.5,28.0,29.75,West,270,0.0,0.0,83,0.02,,,0.44,pywws,2013-02-24 21:39:00,
2013-02-24 16:40:00,32.7,28.1,29.75,North,0,0.0,0.0,83,0.02,,,0.44,pywws,2013-02-24 21:40:00,
2013-02-24 16:41:00,32.5,28.0,29.75,West,270,0.0,0.0,83,0.02,,,0.44,pywws,2013-02-24 21:41:00,
2013-02-24 16:42:00,32.5,28.0,29.75,NW,315,0.0,0.0,83,0.02,,,0.44,pywws,2013-02-24 21:42:00,
2013-02-24 16:43:00,32.5,28.0,29.75,SW,225,0.0,0.7,83,0.02,,,0.44,pywws,2013-02-24 21:43:00,
2013-02-24 16:44:00,32.5,28.0,29.75,North,0,0.0,1.6,83,0.02,,,0.44,pywws,2013-02-24 21:44:00,
2013-02-24 16:45:00,32.5,28.0,29.75,North,0,0.0,0.0,83,0.02,,,0.44,pywws,2013-02-24 21:45:00,
2013-02-24 16:46:00,32.5,28.0,29.75,West,270,0.0,0.0,83,0.02,,,0.44,pywws,2013-02-24 21:46:00,
2013-02-24 16:47:00,32.5,28.0,29.75,West,270,0.0,0.0,83,0.02,,,0.44,pywws,2013-02-24 21:47:00,
2013-02-24 16:48:00,32.5,28.0,29.75,North,0,0.0,0.0,83,0.02,,,0.44,pywws,2013-02-24 21:48:00,
2013-02-24 16:49:00,32.4,27.8,29.75,NW,315,0.0,0.0,83,0.02,,,0.44,pywws,2013-02-24 21:49:00,
2013-02-24 16:50:00,32.5,28.0,29.75,North,0,0.0,0.0,83,0.01,,,0.44,pywws,2013-02-24 21:50:00,
2013-02-24 16:51:00,32.5,28.0,29.76,NE,45,0.0,0.0,83,0.01,,,0.44,pywws,2013-02-24 21:51:00,
2013-02-24 16:52:00,32.4,27.8,29.75,NW,315,0.0,0.0,83,0.01,,,0.44,pywws,2013-02-24 21:52:00,
2013-02-24 16:53:00,32.4,27.8,29.75,West,270,0.0,0.0,83,0.01,,,0.44,pywws,2013-02-24 21:53:00,
2013-02-24 16:55:00,32.4,27.8,29.75,North,0,0.0,0.0,83,0.02,,,0.45,pywws,2013-02-24 21:55:00,
2013-02-24 16:56:00,32.4,27.8,29.75,North,0,0.0,0.0,83,0.02,,,0.45,pywws,2013-02-24 21:56:00,
2013-02-24 16:57:00,32.4,27.8,29.75,NW,315,0.0,0.0,83,0.02,,,0.45,pywws,2013-02-24 21:57:00,
2013-02-24 16:58:00,32.4,27.8,29.75,West,270,0.0,0.0,83,0.02,,,0.45,pywws,2013-02-24 21:58:00,
2013-02-24 16:59:00,32.4,27.8,29.76,North,0,0.0,0.0,83,0.02,,,0.45,pywws,2013-02-24 21:59:00,
2013-02-24 17:00:00,32.2,27.6,29.75,North,0,0.0,0.0,83,0.02,,,0.45,pywws,2013-02-24 22:00:00,
2013-02-24 17:01:00,32.2,27.6,29.76,SE,135,0.0,0.0,83,0.02,,,0.45,pywws,2013-02-24 22:01:00,
2013-02-24 17:02:00,32.2,27.6,29.76,North,0,0.0,0.0,83,0.02,,,0.45,pywws,2013-02-24 22:02:00,
2013-02-24 17:03:00,32.2,27.6,29.75,North,0,0.0,0.0,83,0.02,,,0.45,pywws,2013-02-24 22:03:00,
2013-02-24 17:04:00,32.2,27.6,29.76,North,0,0.0,0.0,83,0.02,,,0.45,pywws,2013-02-24 22:04:00,
2013-02-24 17:05:00,32.2,27.6,29.76,North,0,0.0,0.0,83,0.02,,,0.45,pywws,2013-02-24 22:05:00,
2013-02-24 17:06:00,32.2,27.6,29.76,NW,315,0.0,0.0,83,0.02,,,0.45,pywws,2013-02-24 22:06:00,
2013-02-24 17:07:00,32.2,27.6,29.76,West,270,0.0,0.0,83,0.02,,,0.45,pywws,2013-02-24 22:07:00,
2013-02-24 17:08:00,32.2,27.6,29.77,North,0,0.0,0.0,83,0.02,,,0.45,pywws,2013-02-24 22:08:00,
2013-02-24 17:09:00,32.2,27.6,29.76,North,0,0.0,0.0,83,0.02,,,0.45,pywws,2013-02-24 22:09:00,
2013-02-24 17:10:00,32.2,27.6,29.76,North,0,0.0,0.0,83,0.01,,,0.45,pywws,2013-02-24 22:10:00,
2013-02-24 17:11:00,32.2,27.6,29.76,West,270,0.0,0.0,83,0.01,,,0.45,pywws,2013-02-24 22:11:00,
2013-02-24 17:12:00,32.2,27.6,29.76,NW,315,0.0,0.0,83,0.01,,,0.45,pywws,2013-02-24 22:12:00,
2013-02-24 17:13:00,32.2,27.6,29.76,North,0,0.0,0.0,83,0.01,,,0.45,pywws,2013-02-24 22:13:00,
2013-02-24 17:14:00,32.2,27.6,29.76,North,0,0.0,0.0,83,0.01,,,0.45,pywws,2013-02-24 22:14:00,
2013-02-24 17:15:00,32.0,27.4,29.76,North,0,0.0,0.0,83,0.01,,,0.45,pywws,2013-02-24 22:15:00,
2013-02-24 17:16:00,32.0,27.4,29.76,NE,45,0.0,0.7,83,0.01,,,0.45,pywws,2013-02-24 22:16:00,
2013-02-24 17:17:00,32.0,27.4,29.76,North,0,0.0,0.0,83,0.01,,,0.45,pywws,2013-02-24 22:17:00,
2013-02-24 17:18:00,32.0,27.4,29.76,North,0,0.0,0.0,83,0.01,,,0.45,pywws,2013-02-24 22:18:00,
2013-02-24 17:19:00,32.0,27.4,29.76,West,270,0.0,0.0,83,0.01,,,0.45,pywws,2013-02-24 22:19:00,
2013-02-24 17:20:00,32.0,27.4,29.76,West,270,0.0,0.0,83,0.01,,,0.45,pywws,2013-02-24 22:20:00,
2013-02-24 17:21:00,32.0,27.4,29.76,NW,315,0.0,0.0,83,0.01,,,0.45,pywws,2013-02-24 22:21:00,
2013-02-24 17:22:00,32.0,27.4,29.76,North,0,0.0,0.0,83,0.01,,,0.45,pywws,2013-02-24 22:22:00,
2013-02-24 17:23:00,32.0,27.4,29.76,North,0,0.0,0.0,83,0.01,,,0.45,pywws,2013-02-24 22:23:00,
2013-02-24 17:24:00,32.0,27.4,29.76,North,0,0.0,0.0,83,0.01,,,0.45,pywws,2013-02-24 22:24:00,
2013-02-24 17:25:00,32.0,27.4,29.76,North,0,0.0,0.0,83,0.01,,,0.45,pywws,2013-02-24 22:25:00,
2013-02-24 17:26:00,32.0,27.4,29.76,North,0,0.0,0.0,83,0.01,,,0.45,pywws,2013-02-24 22:26:00,
2013-02-24 17:27:00,32.0,27.4,29.76,North,0,0.0,0.0,83,0.01,,,0.45,pywws,2013-02-24 22:27:00,
2013-02-24 17:28:00,32.0,27.4,29.76,North,0,0.0,0.0,83,0.01,,,0.45,pywws,2013-02-24 22:28:00,
2013-02-24 17:29:00,32.0,27.4,29.76,North,0,0.0,0.0,83,0.01,,,0.45,pywws,2013-02-24 22:29:00,
2013-02-24 17:30:00,32.0,27.4,29.76,East,90,0.0,0.0,83,0.01,,,0.45,pywws,2013-02-24 22:30:00,
2013-02-24 17:31:00,32.0,27.4,29.76,East,90,0.0,0.0,83,0.01,,,0.45,pywws,2013-02-24 22:31:00,
2013-02-24 17:32:00,32.0,27.4,29.76,East,90,0.0,0.0,83,0.01,,,0.45,pywws,2013-02-24 22:32:00,
2013-02-24 17:33:00,32.0,27.4,29.76,North,0,0.0,0.0,83,0.01,,,0.45,pywws,2013-02-24 22:33:00,
2013-02-24 17:34:00,32.0,27.4,29.76,NE,45,0.0,2.2,83,0.01,,,0.45,pywws,2013-02-24 22:34:00,
2013-02-24 17:35:00,32.0,27.4,29.76,North,0,0.0,0.0,83,0.01,,,0.45,pywws,2013-02-24 22:35:00,
2013-02-24 17:36:00,32.0,27.4,29.76,North,0,0.0,0.0,83,0.01,,,0.45,pywws,2013-02-24 22:36:00,
2013-02-24 17:37:00,32.0,27.4,29.76,NW,315,0.0,0.0,83,0.01,,,0.45,pywws,2013-02-24 22:37:00,
2013-02-24 17:38:00,32.0,27.4,29.76,North,0,0.0,0.0,83,0.01,,,0.45,pywws,2013-02-24 22:38:00,
2013-02-24 17:40:00,32.0,27.4,29.77,North,0,0.0,0.0,83,0.01,,,0.45,pywws,2013-02-24 22:40:00,
2013-02-24 17:50:00,32.0,27.4,29.77,NW,315,0.0,0.0,83,0.01,,,0.45,pywws,2013-02-24 22:50:00,
2013-02-24 17:55:00,32.0,27.4,29.78,North,0,0.0,0.0,83,0.01,,,0.46,pywws,2013-02-24 22:55:00,
2013-02-24 18:01:00,32.0,27.4,29.78,North,0,0.0,0.0,83,0.01,,,0.46,pywws,2013-02-24 23:01:00,
2013-02-24 18:07:00,32.0,27.4,29.78,NE,45,0.0,0.0,83,0.01,,,0.46,pywws,2013-02-24 23:07:00,
2013-02-24 18:13:00,32.0,27.4,29.78,North,0,0.0,0.0,83,0.01,,,0.46,pywws,2013-02-24 23:13:00,
2013-02-24 18:18:00,31.8,27.5,29.79,West,270,0.0,0.0,84,0.01,,,0.46,pywws,2013-02-24 23:18:00,
2013-02-24 18:24:00,31.8,27.5,29.79,North,0,0.0,0.0,84,0.01,,,0.46,pywws,2013-02-24 23:24:00,
2013-02-24 18:30:00,31.8,27.5,29.80,NE,45,0.0,0.0,84,0.01,,,0.46,pywws,2013-02-24 23:30:00,
2013-02-24 18:36:00,31.8,27.5,29.80,North,0,0.0,0.0,84,0.01,,,0.46,pywws,2013-02-24 23:36:00,
2013-02-24 18:42:00,31.8,27.5,29.80,North,0,0.0,0.0,84,0.00,,,0.46,pywws,2013-02-24 23:42:00,
2013-02-24 18:47:00,31.6,27.4,29.81,NW,315,0.0,0.0,84,0.00,,,0.46,pywws,2013-02-24 23:47:00,
2013-02-24 18:53:00,31.6,27.4,29.81,NW,315,0.0,0.0,84,0.00,,,0.46,pywws,2013-02-24 23:53:00,
2013-02-24 18:58:00,31.6,27.4,29.81,North,0,0.0,0.0,84,0.00,,,0.46,pywws,2013-02-24 23:58:00,
2013-02-24 19:04:00,31.5,27.2,29.81,NE,45,0.0,0.0,84,0.00,,,0.46,pywws,2013-02-25 00:04:00,
2013-02-24 19:10:00,31.5,27.2,29.82,North,0,0.0,0.0,84,0.00,,,0.46,pywws,2013-02-25 00:10:00,
2013-02-24 19:15:00,31.5,27.2,29.82,North,0,0.0,0.0,84,0.00,,,0.46,pywws,2013-02-25 00:15:00,
2013-02-24 19:21:00,31.5,27.2,29.82,West,270,0.0,0.0,84,0.00,,,0.46,pywws,2013-02-25 00:21:00,
2013-02-24 19:30:00,31.5,27.2,29.83,SE,135,0.0,0.0,84,0.00,,,0.46,pywws,2013-02-25 00:30:00,
2013-02-24 19:36:00,31.5,27.2,29.82,North,0,0.0,0.0,84,0.00,,,0.46,pywws,2013-02-25 00:36:00,
2013-02-24 19:43:00,31.5,27.2,29.83,North,0,0.0,0.0,84,0.00,,,0.46,pywws,2013-02-25 00:43:00,
2013-02-24 19:49:00,31.5,27.2,29.83,North,0,0.0,0.0,84,0.00,,,0.46,pywws,2013-02-25 00:49:00,
2013-02-24 19:54:00,31.5,27.2,29.84,West,270,0.0,0.0,84,0.00,,,0.46,pywws,2013-02-25 00:54:00,
2013-02-24 20:00:00,31.5,27.2,29.83,West,270,0.0,0.0,84,0.00,,,0.46,pywws,2013-02-25 01:00:00,
2013-02-24 20:06:00,31.5,27.2,29.84,NW,315,0.0,0.0,84,0.00,,,0.46,pywws,2013-02-25 01:06:00,
2013-02-24 20:12:00,31.3,27.0,29.84,West,270,0.0,0.0,84,0.00,,,0.46,pywws,2013-02-25 01:12:00,
2013-02-24 20:18:00,31.3,27.0,29.84,West,270,0.0,0.0,84,0.00,,,0.46,pywws,2013-02-25 01:18:00,
2013-02-24 20:23:00,31.3,27.0,29.85,West,270,0.0,0.0,84,0.00,,,0.46,pywws,2013-02-25 01:23:00,
2013-02-24 20:29:00,31.5,27.2,29.85,East,90,0.0,0.0,84,0.00,,,0.46,pywws,2013-02-25 01:29:00,
2013-02-24 20:35:00,31.5,27.2,29.85,East,90,0.0,0.0,84,0.00,,,0.46,pywws,2013-02-25 01:35:00,
2013-02-24 20:42:00,31.5,27.2,29.85,East,90,0.0,0.0,84,0.00,,,0.46,pywws,2013-02-25 01:42:00,
2013-02-24 20:47:00,31.5,27.2,29.85,East,90,0.0,0.0,84,0.00,,,0.46,pywws,2013-02-25 01:47:00,
2013-02-24 20:53:00,31.3,27.0,29.85,East,90,0.0,0.0,84,0.00,,,0.46,pywws,2013-02-25 01:53:00,
2013-02-24 20:58:00,31.3,27.0,29.86,East,90,0.0,0.0,84,0.00,,,0.46,pywws,2013-02-25 01:58:00,
2013-02-24 21:04:00,31.3,27.0,29.86,East,90,0.0,0.0,84,0.00,,,0.46,pywws,2013-02-25 02:04:00,
2013-02-24 21:10:00,31.3,27.0,29.86,West,270,0.0,0.0,84,0.00,,,0.46,pywws,2013-02-25 02:10:00,
2013-02-24 21:15:00,31.5,27.2,29.86,NE,45,0.0,0.0,84,0.00,,,0.46,pywws,2013-02-25 02:15:00,
2013-02-24 21:21:00,31.5,27.2,29.86,NE,45,0.0,0.0,84,0.00,,,0.46,pywws,2013-02-25 02:21:00,
2013-02-24 21:26:00,31.3,27.3,29.86,North,0,0.0,0.0,85,0.00,,,0.46,pywws,2013-02-25 02:26:00,
2013-02-24 21:33:00,31.3,27.3,29.87,West,270,0.0,0.0,85,0.01,,,0.47,pywws,2013-02-25 02:33:00,
2013-02-24 21:39:00,31.3,27.3,29.87,NW,315,0.0,0.0,85,0.01,,,0.47,pywws,2013-02-25 02:39:00,
2013-02-24 21:45:00,31.3,27.3,29.87,North,0,0.0,0.0,85,0.01,,,0.47,pywws,2013-02-25 02:45:00,
2013-02-24 21:50:00,31.1,27.1,29.87,North,0,0.0,0.0,85,0.01,,,0.47,pywws,2013-02-25 02:50:00,
2013-02-24 21:57:00,31.3,27.3,29.87,North,0,0.0,0.0,85,0.01,,,0.47,pywws,2013-02-25 02:57:00,
2013-02-24 22:02:00,31.1,27.1,29.87,North,0,0.0,0.0,85,0.01,,,0.47,pywws,2013-02-25 03:02:00,
2013-02-24 22:09:00,31.1,27.1,29.87,North,0,0.0,0.0,85,0.01,,,0.47,pywws,2013-02-25 03:09:00,
2013-02-24 22:15:00,31.1,27.1,29.87,North,0,0.0,0.0,85,0.01,,,0.47,pywws,2013-02-25 03:15:00,
2013-02-24 22:21:00,31.1,27.1,29.87,West,270,0.0,0.0,85,0.01,,,0.47,pywws,2013-02-25 03:21:00,
2013-02-24 22:27:00,31.1,27.1,29.87,West,270,0.0,0.0,85,0.01,,,0.47,pywws,2013-02-25 03:27:00,
2013-02-24 22:35:00,31.1,27.1,29.88,West,270,0.0,0.0,85,0.00,,,0.47,pywws,2013-02-25 03:35:00,
2013-02-24 22:41:00,31.1,27.1,29.88,West,270,0.0,0.0,85,0.00,,,0.47,pywws,2013-02-25 03:41:00,
2013-02-24 22:46:00,31.1,27.1,29.88,West,270,0.0,0.0,85,0.00,,,0.47,pywws,2013-02-25 03:46:00,
2013-02-24 22:52:00,31.1,27.1,29.88,West,270,0.0,0.0,85,0.00,,,0.47,pywws,2013-02-25 03:52:00,
2013-02-24 22:58:00,30.9,27.0,29.88,East,90,0.0,0.0,85,0.00,,,0.47,pywws,2013-02-25 03:58:00,
2013-02-24 23:03:00,30.9,27.0,29.88,NE,45,0.0,0.0,85,0.00,,,0.47,pywws,2013-02-25 04:03:00,
2013-02-24 23:09:00,30.7,26.8,29.88,NE,45,0.0,0.0,85,0.00,,,0.47,pywws,2013-02-25 04:09:00,
2013-02-24 23:14:00,30.7,26.8,29.88,North,0,0.0,0.0,85,0.00,,,0.47,pywws,2013-02-25 04:14:00,
2013-02-24 23:20:00,30.7,26.8,29.88,East,90,0.0,0.0,85,0.00,,,0.47,pywws,2013-02-25 04:20:00,
2013-02-24 23:26:00,30.7,26.8,29.88,East,90,0.0,0.0,85,0.00,,,0.47,pywws,2013-02-25 04:26:00,
2013-02-24 23:32:00,30.7,26.8,29.88,East,90,0.0,0.0,85,0.00,,,0.47,pywws,2013-02-25 04:32:00,
2013-02-24 23:38:00,30.7,26.8,29.88,East,90,0.0,0.0,85,0.00,,,0.47,pywws,2013-02-25 04:38:00,
2013-02-24 23:44:00,30.7,26.8,29.89,East,90,0.0,0.0,85,0.00,,,0.47,pywws,2013-02-25 04:44:00,
2013-02-24 23:49:00,30.7,26.8,29.89,East,90,0.0,0.0,85,0.00,,,0.47,pywws,2013-02-25 04:49:00,
2013-02-24 23:54:00,30.7,26.8,29.89,East,90,0.0,0.0,85,0.00,,,0.47,pywws,2013-02-25 04:54:00,